Regional Weather Roundup
Issued by NWS

Home | Current Version | Previous Version | Text Only | Print | Product List | Glossary On
Versions: 1 2 3 4 5 6 7 8 9 10 11 12 13 14 15 16 17 18 19 20 21 22 23 24 25 26 27 28 29 30 31 32 33 34 35 36 37 38 39 40 41 42 43 44 45 46 47 48 49 50
000
ASUS42 KTBW 211310
RWRFL
FLORIDA REGIONAL WEATHER ROUNDUP
NATIONAL WEATHER SERVICE TAMPA BAY RUSKIN FL
800 AM EST SUN DEC 21 2014

NOTE: "FAIR" INDICATES FEW OR NO CLOUDS BELOW 12,000 FEET WITH NO
SIGNIFICANT WEATHER AND/OR OBSTRUCTIONS TO VISIBILITY.


FLZ001>010-012>015-112-114-115-211400-
PANHANDLE FLORIDA

CITY           SKY/WX    TMP DP  RH WIND       PRES   REMARKS
PENSACOLA      CLOUDY    50  50 100 NE6       30.10S FOG
CRESTVIEW      CLOUDY    54  50  86 VRB6      30.12S
PANAMA CITY    CLOUDY    54  52  93 N8        30.08R FOG
APALACHICOLA   CLOUDY    58  55  90 NE8       30.07R

STATION/POSITION SKY/WX   TEMP    WIND        PRES    WAVE   SWELL
                          AIR SEA DIR/SP/G            HT/PER HT/PER
                          (F)     (DEG/KT/KT) (MB)    (FT/S) (FT/S)
30.1N   87.6W              57 69   30/ 14/ 17 1018.2F   3/ 6   2/ 7
29.2N   88.2W              64 74   40/ 16/ 17 1017.4R   5/ 6
28.7N   86.0W              69 75   40/ 12/ 14 1017.1R   4/ 5   2/ 6
PANAMA CITY BEAC           54 60   30/  9/ 13 1018.3R
CAPE SAN BLAS    NOT AVBL
TOWER C                    59      70/ 20/ 21 1017.1F
28.5N   84.5W              72 71  130/ 10/ 12 1016.3F   3/ 5   2/ 5

$$
FLZ011-016>038-118-127-128-134-139-239-211400-
NORTH FLORIDA

CITY           SKY/WX    TMP DP  RH WIND       PRES   REMARKS
MARIANNA       LGT RAIN  53  53 100 NE9       30.11R
TALLAHASSEE    LGT RAIN  56  52  86 NE7       30.10S
PERRY          RAIN      56  55  99 NE3       30.11R
CROSS CITY       N/A     59  58  96 NE3       30.09R
LAKE CITY      RAIN      54  54 100 E6        30.13R
GAINESVILLE    FOG       58  58 100 NE6       30.11R VSB 3/4
MAYPORT NAS    CLOUDY    59  58  96 N16       30.13R
JACKSONVILLE   CLOUDY    56  56 100 NE10      30.13R
JAX NAS        CLOUDY    61  57  87 N13       30.13R
JAX CRAIG      CLOUDY    59  57  93 N10       30.13R
JAX CECIL      CLOUDY    57  57 100 NE6       30.13R FOG
FERNANDINA BEA CLOUDY    61  59  94 N10G17    30.13R
ST AUGUSTINE   CLOUDY    63  61  93 N12       30.12R

STATION/POSITION SKY/WX   TEMP    WIND        PRES    WAVE   SWELL
                          AIR SEA DIR/SP/G            HT/PER HT/PER
                          (F)     (DEG/KT/KT) (MB)    (FT/S) (FT/S)
SHELL POINT                55      40/  5/ 10   N/A
KEATON BEACH               56      50/ 10/ 14 1018.8F
CEDAR KEY                  59      70/  9/  9 1018.9R
FERNANDINA                 57 60   30/ 12/ 17 1019.8R
30.7N   81.3W                 62                N/A     5/ 6
MAYPORT                    59 62   30/ 18/ 21   N/A
31.4N   80.9W              55 59   30/ 21/ 25 1020.3S   5/ 7   2/11
ST AUGUSTINE               62     350/ 11/ 13 1019.8R

$$
FLZ040-043>046-052-053-057-058-063-144-211400-
INTERIOR CENTRAL FLORIDA

CITY           SKY/WX    TMP DP  RH WIND       PRES   REMARKS
OCALA          CLOUDY    61  57  88 CALM      30.10R VSB 1/2
THE VILLAGES   FOG       61  61 100 N5        30.01R VSB 1/2
LEESBURG       FOG       61  60  97 NE5       30.10R VSB 1/4
SANFORD        PTCLDY    61  60  97 N3        30.09R FOG
ORLANDO EXEC   PTCLDY    63  62  97 CALM      30.09R
ORLANDO INTL   PTCLDY    62  61  96 CALM      30.09R
KISSIMMEE      CLEAR     63  63 100 CALM      30.10R
WINTER HAVEN   PTCLDY    63  60  90 S3        30.10R
LAKELAND       PTCLDY    59  57  94 CALM      30.09R
BARTOW         PTCLDY    57  57 100 CALM      30.09S
OKEECHOBEE     PTCLDY    57  57 100 CALM      30.10S

$$
FLZ041-047-054-059-064-141-147-211400-
EAST CENTRAL FLORIDA

CITY           SKY/WX    TMP DP  RH WIND       PRES   REMARKS
ORMOND BEACH   MOCLDY    61  61 100 CALM      30.10R FOG
DAYTONA BEACH  CLOUDY    63  61  93 CALM      30.10R FOG
DELAND         CLOUDY   N/A N/A N/A N3        30.11R VSB<1/4
NEW SMYRNA BEA MOCLDY    63  63 100 CALM      30.09  FOG
JFK SPACE CTR  CLOUDY    63  61  94 E2        30.09S FOG
TITUSVILLE     MOCLDY    61  61 100 E5        30.09S
PATRICK AFB    PTCLDY    64  62  95 CALM      30.09
MELBOURNE      PTCLDY    64  61  90 CALM      30.09R
VERO BEACH     MOCLDY    64  61  90 CALM      30.10R
FT PIERCE      PTCLDY    62  61  96 CALM      30.10R
STUART         MOCLDY    59  59 100 CALM      30.11R

STATION/POSITION SKY/WX   TEMP    WIND        PRES    WAVE   SWELL
                          AIR SEA DIR/SP/G            HT/PER HT/PER
                          (F)     (DEG/KT/KT) (MB)    (FT/S) (FT/S)
28.5N   80.2W              71 76  250/  6/  8 1019.1R
28.9N   78.5W              75 77  200/ 10/ 12 1019.7R   3/11   2/11
TRIDENT PIER               61 65   30/  2/  2 1018.6R
28.4N   80.5W                 66                N/A     1/11
27.6N   80.2W                 76                N/A     2/11   2/11

$$
FLZ050-056-061-142-242-148-248-149-249-151-251-155-255-
160-260-211400-
WEST CENTRAL FLORIDA

CITY           SKY/WX    TMP DP  RH WIND       PRES   REMARKS
CRYSTAL RIVER  CLOUDY    61  59  94 E5        30.10R FOG
INVERNESS      FOG       61  61 100 CALM      30.11R VSB 3/4
BROOKSVILLE    MOCLDY    60  58  92 CALM      30.10R FOG
ZEPHYRHILLS    FAIR      55  55 100 CALM      30.10R
CLEARWATER     MOCLDY    65  61  87 SE8       30.07R
TAMPA INTL     PTCLDY    66  59  78 E6        30.09R
TAMPA EXEC     PTCLDY    59  57  94 CALM      30.09R FOG
PLANT CITY     PTCLDY    63 N/A N/A SE5       30.10R
MACDILL AFB    CLOUDY    63  63 100 SE7       30.08R
PETER O KNIGHT MOCLDY    66  63  88 S5        30.08R
ST PETERSBURG  MOCLDY    65  61  87 SE5       30.06R
SARASOTA       CLOUDY    64  62  93 SE6       30.06R
VENICE         FAIR      63  63 100 E3        30.09R

STATION/POSITION SKY/WX   TEMP    WIND        PRES    WAVE   SWELL
                          AIR SEA DIR/SP/G            HT/PER HT/PER
                          (F)     (DEG/KT/KT) (MB)    (FT/S) (FT/S)
CEDAR KEY                  59      70/  9/  9 1018.9R
28.5N   84.5W              72 71  130/ 10/ 12 1016.3F   3/ 5   2/ 5
27.3N   84.3W                 75                N/A     3/ 4
CLEARWATER BEACH           66 64  120/  7/  9 1017.8R
MIDDLE TAMPA BAY           65     160/  6/  8 1018.4R
VENICE                     64 65   90/  5/  6 1018.3R

$$
FLZ066-069-070-075>078-162-262-165-265-211400-
SOUTHWEST FLORIDA AND KEYS

CITY           SKY/WX    TMP DP  RH WIND       PRES   REMARKS
PUNTA GORDA    CLEAR     60  59  96 SE5       30.10R
FT MYERS       CLEAR     62  61  96 CALM      30.08R
SOUTHWEST INTL CLEAR     61  60  97 E3        30.08R
NAPLES         PTCLDY    62  61  96 E5        30.07R
MARCO ISLAND   CLOUDY    63  59  88 E5        30.07R
MARATHON       CLOUDY    75  69  81 SE3       30.07R
KEY WEST NAS   CLOUDY    74  70  87 SE8       30.07R
KEY WEST INTL  CLOUDY    75  70  84 E8        30.07R

STATION/POSITION SKY/WX   TEMP    WIND        PRES    WAVE   SWELL
                          AIR SEA DIR/SP/G            HT/PER HT/PER
                          (F)     (DEG/KT/KT) (MB)    (FT/S) (FT/S)
VENICE                     64 65   90/  5/  6 1018.3R
NAPLES                     65 73  100/  5/  6 1018.7S
26.0N   85.6W              76 76  140/  8/ 10 1016.3R   3/ 7   3/ 7
DRY TORTUGAS               72     100/  9/ 11 1017.0R
NW FL BAY                  70      70/  5/  6 1018.3R
SAND KEY                   76     110/ 11/ 13 1017.9R
SOMBRERO KEY               76     130/ 11/ 12 1019.0R
LONG KEY                   73 70  120/  5/  5 1018.9R
MOLASSES REEF              75 76  130/ 11/ 11 1018.8R

$$
FLZ067-068-071>074-168-172>174-211400-
SOUTHEAST FLORIDA

CITY           SKY/WX    TMP DP  RH WIND       PRES   REMARKS
W PALM BEACH   PTCLDY    63  61  93 CALM      30.09R
FT LAUDER-EXEC MOSUNNY   64  61  90 CALM      30.09R
FT LAUDERDALE  PTSUNNY   67  65  93 CALM      30.09R
POMPANO BEACH  PTSUNNY   64  62  93 CALM      30.09R
PEMBROKE PINES PTSUNNY   65  63  93 CALM      30.10R
OPA LOCKA      PTSUNNY   64  64 100 CALM      30.09S
MIAMI          PTSUNNY   71  66  84 E3        30.09R
WEST KENDALL   PTSUNNY  N/A N/A N/A CALM      30.09S
HOMESTEAD      PTSUNNY   64  62  94 CALM      30.09S

STATION/POSITION SKY/WX   TEMP    WIND        PRES    WAVE   SWELL
                          AIR SEA DIR/SP/G            HT/PER HT/PER
                          (F)     (DEG/KT/KT) (MB)    (FT/S) (FT/S)
PORT EVERGLADES            73     200/  3/  5 1018.8
VIRGINIA KEY               75 73  150/  4/  5 1019.3S
LAKE WORTH                 69 76  270/  4/  5 1018.7R
SETTLEMENT POINT           73     120/  7/  8 1019.9R

$$



USA.gov is the U.S. government's official web portal to all federal, state and local government web resources and services.